Year,Month,Day,Hour,Minute,Value (Times are PST for temperature in C)
2010,03,19,08,37,6.30
2010,03,19,08,38,6.30
2010,03,19,08,39,6.30
2010,03,19,08,40,6.30
2010,03,19,08,41,6.30
2010,03,19,08,42,6.30
2010,03,19,08,43,6.30
2010,03,19,08,44,6.30
2010,03,19,08,45,6.30
2010,03,19,08,46,6.30
2010,03,19,08,47,6.30
2010,03,19,08,48,6.30
2010,03,19,08,49,6.40
2010,03,19,08,50,6.40
2010,03,19,08,51,6.40
2010,03,19,08,52,6.50
2010,03,19,08,53,6.50
2010,03,19,08,54,6.50
2010,03,19,08,55,6.60
2010,03,19,08,56,6.60
2010,03,19,08,57,6.70
2010,03,19,08,58,6.70
2010,03,19,08,59,6.80
2010,03,19,09,00,6.80
2010,03,19,09,01,6.80
2010,03,19,09,02,6.90
2010,03,19,09,03,6.90
2010,03,19,09,04,6.90
2010,03,19,09,05,7.00
2010,03,19,09,06,7.10
2010,03,19,09,07,7.10
2010,03,19,09,08,7.20
2010,03,19,09,09,7.20
2010,03,19,09,10,7.20
2010,03,19,09,11,7.20
2010,03,19,09,12,7.20
2010,03,19,09,13,7.30
2010,03,19,09,14,7.30
2010,03,19,09,15,7.30
2010,03,19,09,16,7.40
2010,03,19,09,17,7.40
2010,03,19,09,18,7.40
2010,03,19,09,19,7.40
2010,03,19,09,20,7.40
2010,03,19,09,21,7.40
2010,03,19,09,22,7.50
2010,03,19,09,23,7.50
2010,03,19,09,24,7.60
2010,03,19,09,25,7.60
2010,03,19,09,26,7.60
2010,03,19,09,27,7.60
2010,03,19,09,28,7.70
2010,03,19,09,29,7.70
2010,03,19,09,30,7.70
2010,03,19,09,31,7.70
2010,03,19,09,32,7.70
2010,03,19,09,33,7.70
2010,03,19,09,34,7.80
2010,03,19,09,35,7.80
2010,03,19,09,36,7.80
2010,03,19,09,37,7.80
2010,03,19,09,38,7.80
2010,03,19,09,39,7.80
2010,03,19,09,40,7.80
2010,03,19,09,41,7.90
2010,03,19,09,42,7.90
2010,03,19,09,43,7.90
2010,03,19,09,44,8.00
2010,03,19,09,45,8.00
2010,03,19,09,46,8.10
2010,03,19,09,47,8.10
2010,03,19,09,48,8.10
2010,03,19,09,49,8.20
2010,03,19,09,50,8.20
2010,03,19,09,51,8.30
2010,03,19,09,52,8.30
2010,03,19,09,53,8.30
2010,03,19,09,54,8.30
2010,03,19,09,55,8.30
2010,03,19,09,56,8.30
2010,03,19,09,57,8.40
2010,03,19,09,58,8.40
2010,03,19,09,59,8.40
2010,03,19,10,00,8.50
2010,03,19,10,01,8.50
2010,03,19,10,02,8.50
2010,03,19,10,03,8.50
2010,03,19,10,04,8.60
2010,03,19,10,05,8.50
2010,03,19,10,06,8.60
2010,03,19,10,07,8.60
2010,03,19,10,08,8.50
2010,03,19,10,09,8.50
2010,03,19,10,10,8.50
2010,03,19,10,11,8.50
2010,03,19,10,12,8.50
2010,03,19,10,13,8.40
2010,03,19,10,14,8.40
2010,03,19,10,15,8.40
2010,03,19,10,16,8.40
2010,03,19,10,17,8.40
2010,03,19,10,18,8.40
2010,03,19,10,19,8.40
2010,03,19,10,20,8.50
2010,03,19,10,21,8.50
2010,03,19,10,22,8.60
2010,03,19,10,23,8.60
2010,03,19,10,24,8.70
2010,03,19,10,25,8.70
2010,03,19,10,26,8.60
2010,03,19,10,27,8.60
2010,03,19,10,28,8.60
2010,03,19,10,29,8.70
2010,03,19,10,30,8.70
2010,03,19,10,31,8.70
2010,03,19,10,32,8.70
2010,03,19,10,33,8.70
2010,03,19,10,34,8.70
2010,03,19,10,35,8.70
2010,03,19,10,36,8.70
2010,03,19,10,37,8.70
2010,03,19,10,38,8.70
2010,03,19,10,39,8.70
2010,03,19,10,40,8.70
2010,03,19,10,41,8.70
2010,03,19,10,42,8.60
2010,03,19,10,43,8.60
2010,03,19,10,44,8.60
2010,03,19,10,45,8.60
2010,03,19,10,46,8.70
2010,03,19,10,47,8.70
2010,03,19,10,48,8.80
2010,03,19,10,49,8.90
2010,03,19,10,50,9.00
2010,03,19,10,51,9.00
2010,03,19,10,52,9.00
2010,03,19,10,53,9.10
2010,03,19,10,54,9.10
2010,03,19,10,55,9.10
2010,03,19,10,56,9.10
2010,03,19,10,57,9.10
2010,03,19,10,58,9.00
2010,03,19,10,59,8.90
2010,03,19,11,00,8.90
2010,03,19,11,01,8.90
2010,03,19,11,02,8.90
2010,03,19,11,03,8.90
2010,03,19,11,04,8.90
2010,03,19,11,05,8.90
2010,03,19,11,06,8.80
2010,03,19,11,07,8.80
2010,03,19,11,08,8.70
2010,03,19,11,09,8.80
2010,03,19,11,10,8.80
2010,03,19,11,11,8.90
2010,03,19,11,12,8.90
2010,03,19,11,13,8.90
2010,03,19,11,14,8.90
2010,03,19,11,15,9.00
2010,03,19,11,16,9.00
2010,03,19,11,17,8.90
2010,03,19,11,18,9.00
2010,03,19,11,19,9.00
2010,03,19,11,20,9.00
2010,03,19,11,21,9.10
2010,03,19,11,22,9.10
2010,03,19,11,23,9.10
2010,03,19,11,24,9.10
2010,03,19,11,25,9.10
2010,03,19,11,26,9.10
2010,03,19,11,27,9.10
2010,03,19,11,28,9.10
2010,03,19,11,29,9.10
2010,03,19,11,30,9.10
2010,03,19,11,31,9.10
2010,03,19,11,32,9.10
2010,03,19,11,33,9.10
2010,03,19,11,34,9.10
2010,03,19,11,35,9.10
2010,03,19,11,36,9.10
2010,03,19,11,37,9.10
2010,03,19,11,38,9.10
2010,03,19,11,39,9.10
2010,03,19,11,40,9.10
2010,03,19,11,41,9.10
2010,03,19,11,42,9.10
2010,03,19,11,43,9.10
2010,03,19,11,44,9.10
2010,03,19,11,45,9.10
2010,03,19,11,46,9.10
2010,03,19,11,47,9.20
2010,03,19,11,48,9.30
2010,03,19,11,49,9.30
2010,03,19,11,50,9.40
2010,03,19,11,51,9.50
2010,03,19,11,52,9.50
2010,03,19,11,53,9.60
2010,03,19,11,54,9.50
2010,03,19,11,55,9.40
2010,03,19,11,56,9.40
2010,03,19,11,57,9.50
2010,03,19,11,58,9.50
2010,03,19,11,59,9.50
2010,03,19,12,00,9.50
2010,03,19,12,01,9.50
2010,03,19,12,02,9.50
2010,03,19,12,03,9.50
2010,03,19,12,04,9.40
2010,03,19,12,05,9.30
2010,03,19,12,06,9.20
2010,03,19,12,07,9.20
2010,03,19,12,08,9.20
2010,03,19,12,09,9.20
2010,03,19,12,10,9.20
2010,03,19,12,11,9.20
2010,03,19,12,12,9.20
2010,03,19,12,13,9.10
2010,03,19,12,14,9.10
2010,03,19,12,15,9.20
2010,03,19,12,16,9.20
2010,03,19,12,17,9.20
2010,03,19,12,18,9.20
2010,03,19,12,19,9.30
2010,03,19,12,20,9.30
2010,03,19,12,21,9.30
2010,03,19,12,22,9.30
2010,03,19,12,23,9.30
2010,03,19,12,24,9.30
2010,03,19,12,25,9.20
2010,03,19,12,26,9.10
2010,03,19,12,27,9.10
2010,03,19,12,28,9.00
2010,03,19,12,29,8.90
2010,03,19,12,30,8.90
2010,03,19,12,31,8.90
2010,03,19,12,32,8.90
2010,03,19,12,33,9.00
2010,03,19,12,34,9.10
2010,03,19,12,35,9.20
2010,03,19,12,36,9.30
2010,03,19,12,37,9.40
2010,03,19,12,38,9.50
2010,03,19,12,39,9.60
2010,03,19,12,40,9.60
2010,03,19,12,41,9.60
2010,03,19,12,42,9.60
2010,03,19,12,43,9.60
2010,03,19,12,44,9.60
2010,03,19,12,45,9.60
2010,03,19,12,46,9.50
2010,03,19,12,47,9.50
2010,03,19,12,48,9.40
2010,03,19,12,49,9.50
2010,03,19,12,50,9.60
2010,03,19,12,51,9.60
2010,03,19,12,52,9.60
2010,03,19,12,53,9.60
2010,03,19,12,54,9.60
2010,03,19,12,55,9.70
2010,03,19,12,56,9.80
2010,03,19,12,57,9.80
2010,03,19,12,58,9.90
2010,03,19,12,59,10.00
2010,03,19,13,00,10.10
2010,03,19,13,01,10.00
2010,03,19,13,02,9.90
2010,03,19,13,03,9.90
2010,03,19,13,04,9.90
2010,03,19,13,05,9.80
2010,03,19,13,06,9.70
2010,03,19,13,07,9.60
2010,03,19,13,08,9.50
2010,03,19,13,09,9.50
2010,03,19,13,10,9.30
2010,03,19,13,11,9.30
2010,03,19,13,12,9.20
2010,03,19,13,13,9.20
2010,03,19,13,14,9.20
2010,03,19,13,15,9.20
2010,03,19,13,16,9.30
2010,03,19,13,17,9.30
2010,03,19,13,18,9.30
2010,03,19,13,19,9.30
2010,03,19,13,20,9.30
2010,03,19,13,21,9.30
2010,03,19,13,22,9.30
2010,03,19,13,23,9.30
2010,03,19,13,24,9.40
2010,03,19,13,25,9.50
2010,03,19,13,26,9.50
2010,03,19,13,27,9.60
2010,03,19,13,28,9.70
2010,03,19,13,29,9.80
2010,03,19,13,30,9.90
2010,03,19,13,31,9.90
2010,03,19,13,32,9.90
2010,03,19,13,33,9.90
2010,03,19,13,34,9.90
2010,03,19,13,35,9.90
2010,03,19,13,36,9.90
2010,03,19,13,37,9.90
2010,03,19,13,38,9.90
2010,03,19,13,39,9.90
2010,03,19,13,40,9.80
2010,03,19,13,41,9.80
2010,03,19,13,42,9.90
2010,03,19,13,43,9.90
2010,03,19,13,44,9.90
2010,03,19,13,45,9.80
2010,03,19,13,46,9.80
2010,03,19,13,47,9.80
2010,03,19,13,48,9.90
2010,03,19,13,49,9.90
2010,03,19,13,50,10.00
2010,03,19,13,51,10.00
2010,03,19,13,52,10.10
2010,03,19,13,53,10.30
2010,03,19,13,54,10.30
2010,03,19,13,55,10.40
2010,03,19,13,56,10.60
2010,03,19,13,57,10.60
2010,03,19,13,58,10.70
2010,03,19,13,59,10.70
2010,03,19,14,00,10.60
2010,03,19,14,01,10.60
2010,03,19,14,02,10.60
2010,03,19,14,03,10.40
2010,03,19,14,04,10.30
2010,03,19,14,05,10.20
2010,03,19,14,06,10.20
2010,03,19,14,07,10.20
2010,03,19,14,08,10.30
2010,03,19,14,09,10.30
2010,03,19,14,10,10.40
2010,03,19,14,11,10.40
2010,03,19,14,12,10.40
2010,03,19,14,13,10.40
2010,03,19,14,14,10.40
2010,03,19,14,15,10.40
2010,03,19,14,16,10.40
2010,03,19,14,17,10.30
2010,03,19,14,18,10.30
2010,03,19,14,19,10.30
2010,03,19,14,20,10.30
2010,03,19,14,21,10.30
2010,03,19,14,22,10.30
2010,03,19,14,23,10.30
2010,03,19,14,24,10.40
2010,03,19,14,25,10.40
2010,03,19,14,26,10.40
2010,03,19,14,27,10.40
2010,03,19,14,28,10.40
2010,03,19,14,29,10.40
2010,03,19,14,30,10.40
2010,03,19,14,31,10.40
2010,03,19,14,32,10.30
2010,03,19,14,33,10.30
2010,03,19,14,34,10.20
2010,03,19,14,35,10.20
2010,03,19,14,36,10.20
2010,03,19,14,37,10.20
2010,03,19,14,38,10.20
2010,03,19,14,39,10.20
2010,03,19,14,40,10.20
2010,03,19,14,41,10.20
2010,03,19,14,42,10.20
2010,03,19,14,43,10.20
2010,03,19,14,44,10.20
2010,03,19,14,45,10.20
2010,03,19,14,46,10.20
2010,03,19,14,47,10.20
2010,03,19,14,48,10.20
2010,03,19,14,49,10.30
2010,03,19,14,50,10.30
2010,03,19,14,51,10.40
2010,03,19,14,52,10.50
2010,03,19,14,53,10.50
2010,03,19,14,54,10.60
2010,03,19,14,55,10.60
2010,03,19,14,56,10.60
2010,03,19,14,57,10.60
2010,03,19,14,58,10.60
2010,03,19,14,59,10.60
2010,03,19,15,00,10.70
2010,03,19,15,01,10.70
2010,03,19,15,02,10.60
2010,03,19,15,03,10.50
2010,03,19,15,04,10.40
2010,03,19,15,05,10.30
2010,03,19,15,06,10.30
2010,03,19,15,07,10.20
2010,03,19,15,08,10.20
2010,03,19,15,09,10.20
2010,03,19,15,10,10.30
2010,03,19,15,11,10.30
2010,03,19,15,12,10.30
2010,03,19,15,13,10.30
2010,03,19,15,14,10.20
2010,03,19,15,15,10.10
2010,03,19,15,16,10.10
2010,03,19,15,17,10.10
2010,03,19,15,18,10.20
2010,03,19,15,19,10.20
2010,03,19,15,20,10.20
2010,03,19,15,21,10.30
2010,03,19,15,22,10.30
2010,03,19,15,23,10.30
2010,03,19,15,24,10.20
2010,03,19,15,25,10.20
2010,03,19,15,26,10.10
2010,03,19,15,27,10.10
2010,03,19,15,28,10.10
2010,03,19,15,29,10.10
2010,03,19,15,30,10.10
2010,03,19,15,31,10.10
2010,03,19,15,32,10.10
2010,03,19,15,33,10.10
2010,03,19,15,34,10.10
2010,03,19,15,35,10.00
2010,03,19,15,36,9.90
2010,03,19,15,37,9.90
2010,03,19,15,38,9.90
2010,03,19,15,39,10.00
2010,03,19,15,40,10.00
2010,03,19,15,41,10.00
2010,03,19,15,42,10.00
2010,03,19,15,43,10.00
2010,03,19,15,44,10.00
2010,03,19,15,45,10.00
2010,03,19,15,46,10.10
2010,03,19,15,47,10.20
2010,03,19,15,48,10.20
2010,03,19,15,49,10.30
2010,03,19,15,50,10.30
2010,03,19,15,51,10.40
2010,03,19,15,52,10.40
2010,03,19,15,53,10.40
2010,03,19,15,54,10.40
2010,03,19,15,55,10.50
2010,03,19,15,56,10.50
2010,03,19,15,57,10.50
2010,03,19,15,58,10.50
2010,03,19,15,59,10.60
2010,03,19,16,00,10.60
2010,03,19,16,01,10.70
2010,03,19,16,02,10.70
2010,03,19,16,03,10.80
2010,03,19,16,04,10.90
2010,03,19,16,05,10.90
2010,03,19,16,06,10.80
2010,03,19,16,07,10.80
2010,03,19,16,08,10.70
2010,03,19,16,09,10.70
2010,03,19,16,10,10.60
2010,03,19,16,11,10.50
2010,03,19,16,12,10.30
2010,03,19,16,13,10.30
2010,03,19,16,14,10.30
2010,03,19,16,15,10.30
2010,03,19,16,16,10.30
2010,03,19,16,17,10.30
2010,03,19,16,18,10.30
2010,03,19,16,19,10.30
2010,03,19,16,20,10.30
2010,03,19,16,21,10.30
2010,03,19,16,22,10.30
2010,03,19,16,23,10.20
2010,03,19,16,24,10.20
2010,03,19,16,25,10.10
2010,03,19,16,26,10.10
2010,03,19,16,27,10.10
2010,03,19,16,28,10.20
2010,03,19,16,29,10.20
2010,03,19,16,30,10.20
2010,03,19,16,31,10.30
2010,03,19,16,32,10.30
2010,03,19,16,33,10.30
2010,03,19,16,34,10.30
2010,03,19,16,35,10.30
2010,03,19,16,36,10.30
2010,03,19,16,37,10.30
2010,03,19,16,38,10.30
2010,03,19,16,39,10.30
2010,03,19,16,40,10.20
2010,03,19,16,41,10.20
2010,03,19,16,42,10.20
2010,03,19,16,43,10.10
2010,03,19,16,44,10.10
2010,03,19,16,45,10.10
2010,03,19,16,46,10.10
2010,03,19,16,47,10.10
2010,03,19,16,48,10.20
2010,03,19,16,49,10.20
2010,03,19,16,50,10.20
2010,03,19,16,51,10.20
2010,03,19,16,52,10.20
2010,03,19,16,53,10.20
2010,03,19,16,54,10.20
2010,03,19,16,55,10.20
2010,03,19,16,56,10.20
2010,03,19,16,57,10.30
2010,03,19,16,58,10.30
2010,03,19,16,59,10.30
2010,03,19,17,00,10.30
2010,03,19,17,01,10.30
2010,03,19,17,02,10.30
2010,03,19,17,03,10.40
2010,03,19,17,04,10.40
2010,03,19,17,05,10.40
2010,03,19,17,06,10.40
2010,03,19,17,07,10.40
2010,03,19,17,08,10.40
2010,03,19,17,09,10.40
2010,03,19,17,10,10.40
2010,03,19,17,11,10.40
2010,03,19,17,12,10.30
2010,03,19,17,13,10.30
2010,03,19,17,14,10.30
2010,03,19,17,15,10.30
2010,03,19,17,16,10.30
2010,03,19,17,17,10.30
2010,03,19,17,18,10.30
2010,03,19,17,19,10.30
2010,03,19,17,20,10.20
2010,03,19,17,21,10.20
2010,03,19,17,22,10.20
2010,03,19,17,23,10.20
2010,03,19,17,24,10.20
2010,03,19,17,25,10.20
2010,03,19,17,26,10.20
2010,03,19,17,27,10.20
2010,03,19,17,28,10.20
2010,03,19,17,29,10.00
2010,03,19,17,30,10.00
2010,03,19,17,31,9.90
2010,03,19,17,32,9.90
2010,03,19,17,33,9.90
2010,03,19,17,34,9.90
2010,03,19,17,35,9.80
2010,03,19,17,36,9.80
2010,03,19,17,37,9.80
2010,03,19,17,38,9.80
2010,03,19,17,39,9.80
2010,03,19,17,40,9.80
2010,03,19,17,41,9.80
2010,03,19,17,42,9.80
2010,03,19,17,43,9.80
2010,03,19,17,44,9.80
2010,03,19,17,45,9.80
2010,03,19,17,46,9.80
2010,03,19,17,47,9.80
2010,03,19,17,48,9.80
2010,03,19,17,49,9.80
2010,03,19,17,50,9.80
